Time,TemperatureF,DewpointF,PressureIn,WindDirection,WindDirectionDegrees,WindSpeedMPH,WindSpeedGustMPH,Humidity,HourlyPrecipIn,Conditions,Clouds,dailyrainin,SoftwareType,DateUTC
2013-03-10 00:00:00,33.5,33.0,29.74,SSE,149,0.0,0.0,98,0.00,NA,NA,0.00,rapidfire-osx,2013-03-10 06:00:00,
2013-03-10 00:05:00,33.7,33.2,29.74,SSE,149,0.0,0.0,98,0.00,NA,NA,0.00,rapidfire-osx,2013-03-10 06:05:00,
2013-03-10 00:10:00,33.8,33.3,29.74,SSE,149,0.0,2.0,98,0.00,NA,NA,0.00,rapidfire-osx,2013-03-10 06:10:00,
2013-03-10 00:15:00,33.8,33.3,29.74,SSE,149,0.0,0.0,98,0.00,NA,NA,0.00,rapidfire-osx,2013-03-10 06:15:00,
2013-03-10 00:20:00,34.0,33.5,29.74,SSE,149,0.0,0.0,98,0.00,NA,NA,0.00,rapidfire-osx,2013-03-10 06:20:00,
2013-03-10 00:25:00,34.0,33.5,29.74,SSE,149,0.0,0.0,98,0.00,NA,NA,0.00,rapidfire-osx,2013-03-10 06:25:00,
2013-03-10 00:30:00,34.1,33.6,29.73,SSE,149,1.0,2.0,98,0.00,NA,NA,0.00,rapidfire-osx,2013-03-10 06:30:00,
2013-03-10 00:35:00,34.1,33.6,29.73,NW,315,2.0,5.0,98,0.00,NA,NA,0.00,rapidfire-osx,2013-03-10 06:35:00,
2013-03-10 00:40:00,34.1,33.6,29.73,NNW,331,0.0,7.0,98,0.00,NA,NA,0.00,rapidfire-osx,2013-03-10 06:40:00,
2013-03-10 00:45:00,34.1,33.6,29.73,NW,317,0.0,0.0,98,0.00,NA,NA,0.00,rapidfire-osx,2013-03-10 06:45:00,
2013-03-10 00:50:00,34.1,33.6,29.73,NW,319,0.0,6.0,98,0.00,NA,NA,0.00,rapidfire-osx,2013-03-10 06:50:00,
2013-03-10 00:55:00,34.0,33.5,29.73,WNW,296,2.0,6.0,98,0.00,NA,NA,0.00,rapidfire-osx,2013-03-10 06:55:00,
2013-03-10 01:00:00,34.0,33.5,29.74,WNW,296,0.0,2.0,98,0.00,NA,NA,0.00,rapidfire-osx,2013-03-10 07:00:00,
2013-03-10 01:05:00,33.8,33.3,29.74,NW,324,0.0,7.0,98,0.00,NA,NA,0.00,rapidfire-osx,2013-03-10 07:05:00,
2013-03-10 01:10:00,33.8,33.3,29.74,WNW,299,1.0,6.0,98,0.00,NA,NA,0.00,rapidfire-osx,2013-03-10 07:10:00,
2013-03-10 01:15:00,33.7,33.2,29.74,WNW,302,2.0,5.0,98,0.00,NA,NA,0.00,rapidfire-osx,2013-03-10 07:15:00,
2013-03-10 01:20:00,33.7,33.2,29.74,WNW,302,6.0,7.0,98,0.00,NA,NA,0.00,rapidfire-osx,2013-03-10 07:20:00,
2013-03-10 01:25:00,33.7,33.2,29.74,North,360,3.0,10.0,98,0.00,NA,NA,0.00,rapidfire-osx,2013-03-10 07:25:00,
2013-03-10 01:30:00,33.7,33.2,29.73,NNW,346,0.0,7.0,98,0.00,NA,NA,0.00,rapidfire-osx,2013-03-10 07:30:00,
2013-03-10 01:35:00,33.5,33.0,29.73,NNW,329,0.0,2.0,98,0.00,NA,NA,0.00,rapidfire-osx,2013-03-10 07:35:00,
2013-03-10 01:40:00,33.5,33.0,29.73,North,360,7.0,9.0,98,0.00,NA,NA,0.00,rapidfire-osx,2013-03-10 07:40:00,
2013-03-10 01:45:00,33.4,32.9,29.73,NW,317,0.0,9.0,98,0.00,NA,NA,0.00,rapidfire-osx,2013-03-10 07:45:00,
2013-03-10 01:50:00,33.4,32.9,29.73,NNW,328,2.0,6.0,98,0.00,NA,NA,0.00,rapidfire-osx,2013-03-10 07:50:00,
2013-03-10 01:55:00,33.4,32.9,29.73,NNW,335,4.0,9.0,98,0.00,NA,NA,0.00,rapidfire-osx,2013-03-10 07:55:00,
2013-03-10 03:00:00,33.2,32.7,29.74,NNW,336,0.0,12.0,98,0.00,NA,NA,0.00,rapidfire-osx,2013-03-10 08:00:00,
2013-03-10 03:05:00,33.2,32.7,29.74,North,9,3.0,9.0,98,0.00,NA,NA,0.00,rapidfire-osx,2013-03-10 08:05:00,
2013-03-10 03:10:00,33.2,32.7,29.74,North,350,0.0,7.0,98,0.00,NA,NA,0.00,rapidfire-osx,2013-03-10 08:10:00,
2013-03-10 03:15:00,33.1,32.6,29.75,NNW,327,1.0,5.0,98,0.00,NA,NA,0.00,rapidfire-osx,2013-03-10 08:15:00,
2013-03-10 03:20:00,33.1,32.6,29.75,North,350,0.0,3.0,98,0.00,NA,NA,0.00,rapidfire-osx,2013-03-10 08:20:00,
2013-03-10 03:25:00,33.1,32.6,29.75,NW,318,0.0,5.0,98,0.00,NA,NA,0.00,rapidfire-osx,2013-03-10 08:25:00,
2013-03-10 03:30:00,32.9,32.4,29.75,NW,311,1.0,12.0,98,0.00,NA,NA,0.00,rapidfire-osx,2013-03-10 08:30:00,
2013-03-10 03:35:00,32.9,32.4,29.75,NNW,343,2.0,5.0,98,0.00,NA,NA,0.00,rapidfire-osx,2013-03-10 08:35:00,
2013-03-10 03:40:00,32.9,32.4,29.75,NNW,341,1.0,11.0,98,0.00,NA,NA,0.00,rapidfire-osx,2013-03-10 08:40:00,
2013-03-10 03:45:00,32.9,32.4,29.75,NW,314,0.0,8.0,98,0.00,NA,NA,0.00,rapidfire-osx,2013-03-10 08:45:00,
2013-03-10 03:50:00,32.9,32.4,29.75,North,351,3.0,7.0,98,0.00,NA,NA,0.00,rapidfire-osx,2013-03-10 08:50:00,
2013-03-10 03:55:00,32.8,32.3,29.75,North,351,2.0,6.0,98,0.00,NA,NA,0.00,rapidfire-osx,2013-03-10 08:55:00,
2013-03-10 04:00:00,32.8,32.3,29.77,North,351,1.0,6.0,98,0.00,NA,NA,0.00,rapidfire-osx,2013-03-10 09:00:00,
2013-03-10 04:05:00,32.8,32.3,29.77,NNW,331,5.0,6.0,98,0.00,NA,NA,0.00,rapidfire-osx,2013-03-10 09:05:00,
2013-03-10 04:10:00,32.8,32.3,29.77,North,360,2.0,9.0,98,0.00,NA,NA,0.00,rapidfire-osx,2013-03-10 09:10:00,
2013-03-10 04:15:00,32.8,32.3,29.77,North,360,0.0,10.0,98,0.00,NA,NA,0.00,rapidfire-osx,2013-03-10 09:15:00,
2013-03-10 04:20:00,32.8,32.3,29.77,NW,321,3.0,15.0,98,0.00,NA,NA,0.00,rapidfire-osx,2013-03-10 09:20:00,
2013-03-10 04:25:00,32.8,32.3,29.77,NW,307,0.0,5.0,98,0.00,NA,NA,0.00,rapidfire-osx,2013-03-10 09:25:00,
2013-03-10 04:30:00,32.8,32.3,29.77,NNW,338,4.0,8.0,98,0.00,NA,NA,0.00,rapidfire-osx,2013-03-10 09:30:00,
2013-03-10 04:35:00,32.8,32.3,29.77,NNW,343,2.0,6.0,98,0.00,NA,NA,0.00,rapidfire-osx,2013-03-10 09:35:00,
2013-03-10 04:40:00,32.8,32.3,29.77,North,351,2.0,6.0,98,0.00,NA,NA,0.00,rapidfire-osx,2013-03-10 09:40:00,
2013-03-10 04:45:00,32.7,32.2,29.76,NNW,346,5.0,9.0,98,0.00,NA,NA,0.00,rapidfire-osx,2013-03-10 09:45:00,
2013-03-10 04:50:00,32.7,32.2,29.76,NNW,344,1.0,6.0,98,0.00,NA,NA,0.00,rapidfire-osx,2013-03-10 09:50:00,
2013-03-10 04:55:00,32.7,32.2,29.76,North,360,3.0,7.0,98,0.00,NA,NA,0.00,rapidfire-osx,2013-03-10 09:55:00,
2013-03-10 05:00:00,32.5,32.0,29.75,North,351,0.0,11.0,98,0.00,NA,NA,0.00,rapidfire-osx,2013-03-10 10:00:00,
2013-03-10 05:05:00,32.5,32.0,29.75,NW,323,2.0,14.0,98,0.00,NA,NA,0.00,rapidfire-osx,2013-03-10 10:05:00,
2013-03-10 05:10:00,32.5,32.0,29.75,NNW,344,1.0,9.0,98,0.00,NA,NA,0.00,rapidfire-osx,2013-03-10 10:10:00,
2013-03-10 05:15:00,32.5,32.0,29.75,North,351,0.0,7.0,98,0.00,NA,NA,0.00,rapidfire-osx,2013-03-10 10:15:00,
2013-03-10 05:20:00,32.5,32.0,29.75,NNW,341,7.0,11.0,98,0.00,NA,NA,0.00,rapidfire-osx,2013-03-10 10:20:00,
2013-03-10 05:25:00,32.5,32.0,29.75,NNW,345,2.0,12.0,98,0.00,NA,NA,0.00,rapidfire-osx,2013-03-10 10:25:00,
2013-03-10 05:30:00,32.5,32.0,29.74,North,360,3.0,10.0,98,0.00,NA,NA,0.00,rapidfire-osx,2013-03-10 10:30:00,
2013-03-10 05:35:00,32.5,32.0,29.74,North,351,2.0,7.0,98,0.00,NA,NA,0.00,rapidfire-osx,2013-03-10 10:35:00,
2013-03-10 05:40:00,32.5,32.0,29.74,NNE,25,6.0,14.0,98,0.00,NA,NA,0.00,rapidfire-osx,2013-03-10 10:40:00,
2013-03-10 05:45:00,32.5,32.0,29.77,NNW,337,4.0,9.0,98,0.00,NA,NA,0.00,rapidfire-osx,2013-03-10 10:45:00,
2013-03-10 05:50:00,32.5,32.0,29.77,WNW,292,2.0,10.0,98,0.00,NA,NA,0.00,rapidfire-osx,2013-03-10 10:50:00,
2013-03-10 05:55:00,32.5,32.0,29.77,NNW,346,0.0,8.0,98,0.00,NA,NA,0.00,rapidfire-osx,2013-03-10 10:55:00,
2013-03-10 06:00:00,32.5,32.0,29.80,NNW,346,1.0,11.0,98,0.00,NA,NA,0.00,rapidfire-osx,2013-03-10 11:00:00,
2013-03-10 06:04:00,32.4,31.9,29.80,North,350,1.0,12.0,98,0.00,NA,NA,0.00,rapidfire-osx,2013-03-10 11:04:00,
2013-03-10 06:09:00,32.4,31.9,29.80,NNW,338,1.0,20.0,98,0.00,NA,NA,0.00,rapidfire-osx,2013-03-10 11:09:00,
2013-03-10 06:14:00,32.4,31.9,29.78,NNE,15,2.0,14.0,98,0.00,NA,NA,0.00,rapidfire-osx,2013-03-10 11:14:00,
2013-03-10 06:19:00,32.4,31.9,29.78,North,360,1.0,11.0,98,0.00,NA,NA,0.00,rapidfire-osx,2013-03-10 11:19:00,
2013-03-10 06:24:00,32.4,31.9,29.78,NNW,345,3.0,14.0,98,0.00,NA,NA,0.00,rapidfire-osx,2013-03-10 11:24:00,
2013-03-10 06:29:00,32.2,31.7,29.78,NNW,342,5.0,7.0,98,0.00,NA,NA,0.00,rapidfire-osx,2013-03-10 11:29:00,
2013-03-10 06:34:00,32.2,31.7,29.78,North,351,1.0,9.0,98,0.00,NA,NA,0.00,rapidfire-osx,2013-03-10 11:34:00,
2013-03-10 06:39:00,32.2,31.7,29.78,NNW,333,2.0,13.0,98,0.00,NA,NA,0.00,rapidfire-osx,2013-03-10 11:39:00,
2013-03-10 06:44:00,32.2,31.7,29.80,North,360,4.0,6.0,98,0.00,NA,NA,0.00,rapidfire-osx,2013-03-10 11:44:00,
2013-03-10 06:49:00,32.2,31.7,29.80,North,351,1.0,11.0,98,0.00,NA,NA,0.00,rapidfire-osx,2013-03-10 11:49:00,
2013-03-10 06:54:00,32.2,31.4,29.80,North,11,3.0,9.0,97,0.00,NA,NA,0.00,rapidfire-osx,2013-03-10 11:54:00,
2013-03-10 06:59:00,32.2,31.4,29.81,North,351,1.0,6.0,97,0.00,NA,NA,0.00,rapidfire-osx,2013-03-10 11:59:00,
2013-03-10 07:04:00,32.2,31.4,29.81,North,360,0.0,3.0,97,0.00,NA,NA,0.00,rapidfire-osx,2013-03-10 12:04:00,
2013-03-10 07:09:00,32.2,31.4,29.81,NNW,342,3.0,13.0,97,0.00,NA,NA,0.00,rapidfire-osx,2013-03-10 12:09:00,
2013-03-10 07:14:00,32.2,31.4,29.81,NW,319,6.0,12.0,97,0.00,NA,NA,0.00,rapidfire-osx,2013-03-10 12:14:00,
2013-03-10 07:19:00,32.2,31.4,29.81,NW,319,4.0,12.0,97,0.00,NA,NA,0.00,rapidfire-osx,2013-03-10 12:19:00,
2013-03-10 07:24:00,32.1,31.3,29.81,North,360,4.0,14.0,97,0.00,NA,NA,0.00,rapidfire-osx,2013-03-10 12:24:00,
2013-03-10 07:29:00,32.1,31.3,29.80,NNW,335,6.0,13.0,97,0.00,NA,NA,0.00,rapidfire-osx,2013-03-10 12:29:00,
2013-03-10 07:34:00,31.9,31.1,29.80,NNW,328,2.0,10.0,97,0.00,NA,NA,0.00,rapidfire-osx,2013-03-10 12:34:00,
2013-03-10 07:39:00,31.9,31.1,29.80,NNW,340,1.0,12.0,97,0.00,NA,NA,0.00,rapidfire-osx,2013-03-10 12:39:00,
2013-03-10 07:44:00,31.9,31.1,29.81,NNW,328,1.0,10.0,97,0.00,NA,NA,0.00,rapidfire-osx,2013-03-10 12:44:00,
2013-03-10 07:49:00,31.9,30.9,29.81,NNW,342,4.0,13.0,96,0.00,NA,NA,0.00,rapidfire-osx,2013-03-10 12:49:00,
2013-03-10 07:54:00,31.9,30.9,29.81,NW,321,7.0,12.0,96,0.00,NA,NA,0.00,rapidfire-osx,2013-03-10 12:54:00,
2013-03-10 07:59:00,31.9,30.9,29.81,NNW,348,0.0,9.0,96,0.00,NA,NA,0.00,rapidfire-osx,2013-03-10 12:59:00,
2013-03-10 08:04:00,31.9,30.9,29.81,North,360,2.0,10.0,96,0.00,NA,NA,0.00,rapidfire-osx,2013-03-10 13:04:00,
2013-03-10 08:09:00,31.9,30.9,29.81,North,350,3.0,9.0,96,0.00,NA,NA,0.00,rapidfire-osx,2013-03-10 13:09:00,
2013-03-10 08:14:00,32.1,31.1,29.83,North,11,4.0,11.0,96,0.00,NA,NA,0.00,rapidfire-osx,2013-03-10 13:14:00,
2013-03-10 08:19:00,32.1,31.1,29.83,NNE,29,2.0,10.0,96,0.00,NA,NA,0.00,rapidfire-osx,2013-03-10 13:19:00,
2013-03-10 08:24:00,32.1,31.1,29.83,NE,34,4.0,6.0,96,0.00,NA,NA,0.00,rapidfire-osx,2013-03-10 13:24:00,
2013-03-10 08:29:00,32.1,30.8,29.84,North,360,2.0,9.0,95,0.00,NA,NA,0.00,rapidfire-osx,2013-03-10 13:29:00,
2013-03-10 08:34:00,32.1,30.8,29.84,North,11,3.0,6.0,95,0.00,NA,NA,0.00,rapidfire-osx,2013-03-10 13:34:00,
2013-03-10 08:39:00,32.1,30.8,29.84,NNW,343,1.0,9.0,95,0.00,NA,NA,0.00,rapidfire-osx,2013-03-10 13:39:00,
2013-03-10 08:44:00,32.1,30.8,29.86,North,351,3.0,14.0,95,0.00,NA,NA,0.00,rapidfire-osx,2013-03-10 13:44:00,
2013-03-10 08:49:00,32.2,30.7,29.86,North,360,2.0,10.0,94,0.00,NA,NA,0.00,rapidfire-osx,2013-03-10 13:49:00,
2013-03-10 08:54:00,32.2,30.7,29.86,North,351,0.0,10.0,94,0.00,NA,NA,0.00,rapidfire-osx,2013-03-10 13:54:00,
2013-03-10 08:59:00,32.2,30.7,29.87,NW,315,1.0,11.0,94,0.00,NA,NA,0.00,rapidfire-osx,2013-03-10 13:59:00,
2013-03-10 09:04:00,32.4,30.6,29.87,NW,321,4.0,6.0,93,0.00,NA,NA,0.00,rapidfire-osx,2013-03-10 14:04:00,
2013-03-10 09:09:00,32.4,30.6,29.87,NNW,339,4.0,14.0,93,0.00,NA,NA,0.00,rapidfire-osx,2013-03-10 14:09:00,
2013-03-10 09:14:00,32.4,30.6,29.89,NW,311,4.0,11.0,93,0.00,NA,NA,0.00,rapidfire-osx,2013-03-10 14:14:00,
2013-03-10 09:19:00,32.4,30.3,29.89,NNW,336,2.0,13.0,92,0.00,NA,NA,0.00,rapidfire-osx,2013-03-10 14:19:00,
2013-03-10 09:24:00,32.4,30.3,29.89,North,360,2.0,11.0,92,0.00,NA,NA,0.00,rapidfire-osx,2013-03-10 14:24:00,
2013-03-10 09:29:00,32.5,30.4,29.90,NNW,337,1.0,6.0,92,0.00,NA,NA,0.00,rapidfire-osx,2013-03-10 14:29:00,
2013-03-10 09:34:00,32.5,30.2,29.90,North,351,3.0,10.0,91,0.00,NA,NA,0.00,rapidfire-osx,2013-03-10 14:34:00,
2013-03-10 09:39:00,32.5,30.2,29.90,NNE,15,1.0,12.0,91,0.00,NA,NA,0.00,rapidfire-osx,2013-03-10 14:39:00,
2013-03-10 09:44:00,32.7,30.4,29.89,North,10,5.0,10.0,91,0.00,NA,NA,0.00,rapidfire-osx,2013-03-10 14:44:00,
2013-03-10 09:49:00,32.7,30.4,29.89,North,350,6.0,13.0,91,0.00,NA,NA,0.00,rapidfire-osx,2013-03-10 14:49:00,
2013-03-10 09:54:00,32.7,30.4,29.89,NNW,342,2.0,10.0,91,0.00,NA,NA,0.00,rapidfire-osx,2013-03-10 14:54:00,
2013-03-10 09:59:00,32.8,30.2,29.87,North,360,0.0,6.0,90,0.00,NA,NA,0.00,rapidfire-osx,2013-03-10 14:59:00,
2013-03-10 10:04:00,32.9,30.3,29.87,NNW,328,0.0,6.0,90,0.00,NA,NA,0.00,rapidfire-osx,2013-03-10 15:04:00,
2013-03-10 10:09:00,33.1,30.5,29.87,NNW,344,0.0,9.0,90,0.00,NA,NA,0.00,rapidfire-osx,2013-03-10 15:09:00,
2013-03-10 10:14:00,33.1,30.5,29.89,North,11,5.0,9.0,90,0.00,NA,NA,0.00,rapidfire-osx,2013-03-10 15:14:00,
2013-03-10 10:19:00,33.1,30.2,29.89,North,351,1.0,12.0,89,0.00,NA,NA,0.00,rapidfire-osx,2013-03-10 15:19:00,
2013-03-10 10:24:00,33.1,30.2,29.89,NNW,339,4.0,10.0,89,0.00,NA,NA,0.00,rapidfire-osx,2013-03-10 15:24:00,
2013-03-10 10:29:00,33.2,30.0,29.89,North,351,2.0,12.0,88,0.00,NA,NA,0.00,rapidfire-osx,2013-03-10 15:29:00,
2013-03-10 10:34:00,33.2,30.0,29.89,NW,324,4.0,15.0,88,0.00,NA,NA,0.00,rapidfire-osx,2013-03-10 15:34:00,
2013-03-10 10:39:00,33.2,30.0,29.89,North,351,5.0,13.0,88,0.00,NA,NA,0.00,rapidfire-osx,2013-03-10 15:39:00,
2013-03-10 10:44:00,33.4,30.2,29.87,NNW,348,0.0,7.0,88,0.00,NA,NA,0.00,rapidfire-osx,2013-03-10 15:44:00,
2013-03-10 10:49:00,33.5,30.1,29.87,North,351,9.0,9.0,87,0.00,NA,NA,0.00,rapidfire-osx,2013-03-10 15:49:00,
2013-03-10 10:54:00,33.5,30.1,29.87,NNE,14,2.0,11.0,87,0.00,NA,NA,0.00,rapidfire-osx,2013-03-10 15:54:00,
2013-03-10 10:59:00,33.7,30.3,29.91,North,351,1.0,15.0,87,0.00,NA,NA,0.00,rapidfire-osx,2013-03-10 15:59:00,
2013-03-10 11:04:00,33.7,30.3,29.91,NNW,339,2.0,7.0,87,0.00,NA,NA,0.00,rapidfire-osx,2013-03-10 16:04:00,
2013-03-10 11:09:00,33.7,30.0,29.91,North,351,1.0,11.0,86,0.00,NA,NA,0.00,rapidfire-osx,2013-03-10 16:09:00,
2013-03-10 11:14:00,33.8,30.3,29.91,NNE,19,0.0,6.0,87,0.00,NA,NA,0.00,rapidfire-osx,2013-03-10 16:14:00,
2013-03-10 11:19:00,33.8,30.1,29.91,NNW,330,3.0,13.0,86,0.00,NA,NA,0.00,rapidfire-osx,2013-03-10 16:19:00,
2013-03-10 11:24:00,33.8,30.1,29.91,NW,319,3.0,9.0,86,0.00,NA,NA,0.00,rapidfire-osx,2013-03-10 16:24:00,
2013-03-10 11:29:00,33.8,30.1,29.89,North,351,1.0,12.0,86,0.00,NA,NA,0.00,rapidfire-osx,2013-03-10 16:29:00,
2013-03-10 11:34:00,33.8,29.8,29.89,NNE,28,1.0,7.0,85,0.00,NA,NA,0.00,rapidfire-osx,2013-03-10 16:34:00,
2013-03-10 11:39:00,34.0,30.0,29.89,NNE,26,0.0,11.0,85,0.00,NA,NA,0.00,rapidfire-osx,2013-03-10 16:39:00,
2013-03-10 11:44:00,34.0,30.0,29.89,North,360,2.0,11.0,85,0.00,NA,NA,0.00,rapidfire-osx,2013-03-10 16:44:00,
2013-03-10 11:49:00,34.0,30.0,29.89,NNE,17,3.0,7.0,85,0.00,NA,NA,0.00,rapidfire-osx,2013-03-10 16:49:00,
2013-03-10 11:54:00,34.0,30.0,29.89,ENE,57,4.0,7.0,85,0.00,NA,NA,0.00,rapidfire-osx,2013-03-10 16:54:00,
2013-03-10 11:59:00,34.0,29.7,29.88,North,9,2.0,16.0,84,0.00,NA,NA,0.00,rapidfire-osx,2013-03-10 16:59:00,
2013-03-10 12:04:00,34.0,30.0,29.88,NE,47,3.0,6.0,85,0.00,NA,NA,0.00,rapidfire-osx,2013-03-10 17:04:00,
2013-03-10 12:09:00,34.0,29.7,29.88,NNW,338,3.0,9.0,84,0.00,NA,NA,0.00,rapidfire-osx,2013-03-10 17:09:00,
2013-03-10 12:14:00,34.0,29.7,29.88,NNE,29,5.0,12.0,84,0.00,NA,NA,0.00,rapidfire-osx,2013-03-10 17:14:00,
2013-03-10 12:19:00,34.0,29.7,29.88,North,351,2.0,7.0,84,0.00,NA,NA,0.00,rapidfire-osx,2013-03-10 17:19:00,
2013-03-10 12:24:00,34.0,29.7,29.88,ENE,65,2.0,12.0,84,0.00,NA,NA,0.00,rapidfire-osx,2013-03-10 17:24:00,
2013-03-10 12:29:00,34.1,29.8,29.90,NNE,12,2.0,6.0,84,0.00,NA,NA,0.00,rapidfire-osx,2013-03-10 17:29:00,
2013-03-10 12:34:00,34.1,29.8,29.90,NNW,347,0.0,6.0,84,0.00,NA,NA,0.00,rapidfire-osx,2013-03-10 17:34:00,
2013-03-10 12:39:00,34.1,29.8,29.90,NNE,23,0.0,11.0,84,0.00,NA,NA,0.00,rapidfire-osx,2013-03-10 17:39:00,
2013-03-10 12:44:00,34.3,30.0,29.89,NW,311,5.0,9.0,84,0.00,NA,NA,0.00,rapidfire-osx,2013-03-10 17:44:00,
2013-03-10 12:49:00,34.3,29.7,29.89,NNW,348,1.0,7.0,83,0.00,NA,NA,0.00,rapidfire-osx,2013-03-10 17:49:00,
2013-03-10 12:54:00,34.4,30.1,29.89,North,9,3.0,7.0,84,0.00,NA,NA,0.00,rapidfire-osx,2013-03-10 17:54:00,
2013-03-10 12:59:00,34.4,29.8,29.89,North,350,1.0,7.0,83,0.00,NA,NA,0.00,rapidfire-osx,2013-03-10 17:59:00,
2013-03-10 13:05:00,34.4,29.8,29.89,NNW,331,2.0,9.0,83,0.00,NA,NA,0.00,rapidfire-osx,2013-03-10 18:05:00,
2013-03-10 13:09:00,34.4,29.5,29.89,NNE,19,0.0,10.0,82,0.00,NA,NA,0.00,rapidfire-osx,2013-03-10 18:09:00,
2013-03-10 13:14:00,34.3,29.4,29.88,NNE,15,1.0,9.0,82,0.00,NA,NA,0.00,rapidfire-osx,2013-03-10 18:14:00,
2013-03-10 13:19:00,34.3,29.4,29.88,North,9,0.0,9.0,82,0.00,NA,NA,0.00,rapidfire-osx,2013-03-10 18:19:00,
2013-03-10 13:24:00,34.4,29.8,29.88,WNW,295,0.0,6.0,83,0.00,NA,NA,0.00,rapidfire-osx,2013-03-10 18:24:00,
2013-03-10 13:29:00,34.4,29.8,29.86,NE,46,3.0,10.0,83,0.00,NA,NA,0.00,rapidfire-osx,2013-03-10 18:29:00,
2013-03-10 13:34:00,34.4,29.5,29.86,NE,46,5.0,16.0,82,0.00,NA,NA,0.00,rapidfire-osx,2013-03-10 18:34:00,
2013-03-10 13:39:00,34.4,29.5,29.86,North,360,7.0,10.0,82,0.00,NA,NA,0.00,rapidfire-osx,2013-03-10 18:39:00,
2013-03-10 13:44:00,34.3,29.4,29.86,NNW,348,3.0,10.0,82,0.00,NA,NA,0.00,rapidfire-osx,2013-03-10 18:44:00,
2013-03-10 13:49:00,34.3,29.1,29.86,North,360,4.0,11.0,81,0.00,NA,NA,0.00,rapidfire-osx,2013-03-10 18:49:00,
2013-03-10 13:54:00,34.3,29.1,29.86,North,9,0.0,10.0,81,0.00,NA,NA,0.00,rapidfire-osx,2013-03-10 18:54:00,
2013-03-10 13:59:00,34.4,29.2,29.86,NNE,12,4.0,13.0,81,0.00,NA,NA,0.00,rapidfire-osx,2013-03-10 18:59:00,
2013-03-10 14:04:00,34.4,29.2,29.86,NW,319,2.0,9.0,81,0.00,NA,NA,0.00,rapidfire-osx,2013-03-10 19:04:00,
2013-03-10 14:09:00,34.4,28.9,29.86,NNE,13,7.0,10.0,80,0.00,NA,NA,0.00,rapidfire-osx,2013-03-10 19:09:00,
2013-03-10 14:14:00,34.6,29.1,29.86,NNE,27,1.0,10.0,80,0.00,NA,NA,0.00,rapidfire-osx,2013-03-10 19:14:00,
2013-03-10 14:19:00,34.6,29.1,29.86,North,360,4.0,9.0,80,0.00,NA,NA,0.00,rapidfire-osx,2013-03-10 19:19:00,
2013-03-10 14:24:00,34.6,29.1,29.86,NW,312,1.0,6.0,80,0.00,NA,NA,0.00,rapidfire-osx,2013-03-10 19:24:00,
2013-03-10 14:29:00,34.6,29.1,29.86,NNW,345,2.0,14.0,80,0.00,NA,NA,0.00,rapidfire-osx,2013-03-10 19:29:00,
2013-03-10 14:34:00,34.6,29.4,29.86,NNW,340,3.0,10.0,81,0.00,NA,NA,0.00,rapidfire-osx,2013-03-10 19:34:00,
2013-03-10 14:39:00,34.4,28.9,29.86,NW,311,9.0,9.0,80,0.00,NA,NA,0.00,rapidfire-osx,2013-03-10 19:39:00,
2013-03-10 14:44:00,34.3,28.8,29.86,North,5,1.0,12.0,80,0.00,NA,NA,0.00,rapidfire-osx,2013-03-10 19:44:00,
2013-03-10 14:50:00,34.1,28.9,29.86,North,350,10.0,12.0,81,0.00,NA,NA,0.00,rapidfire-osx,2013-03-10 19:50:00,
2013-03-10 14:55:00,34.0,28.8,29.86,North,351,3.0,12.0,81,0.00,NA,NA,0.00,rapidfire-osx,2013-03-10 19:55:00,
2013-03-10 15:00:00,34.0,28.8,29.86,NNE,29,2.0,14.0,81,0.00,NA,NA,0.00,rapidfire-osx,2013-03-10 20:00:00,
2013-03-10 15:05:00,34.0,28.8,29.86,North,351,0.0,9.0,81,0.00,NA,NA,0.00,rapidfire-osx,2013-03-10 20:05:00,
2013-03-10 15:10:00,34.0,28.8,29.86,NNW,345,3.0,7.0,81,0.00,NA,NA,0.00,rapidfire-osx,2013-03-10 20:10:00,
2013-03-10 15:15:00,34.0,28.8,29.86,NNE,23,3.0,12.0,81,0.00,NA,NA,0.00,rapidfire-osx,2013-03-10 20:15:00,
2013-03-10 15:20:00,34.0,28.8,29.86,NNE,13,5.0,12.0,81,0.00,NA,NA,0.00,rapidfire-osx,2013-03-10 20:20:00,
2013-03-10 15:25:00,34.1,28.9,29.86,North,351,3.0,11.0,81,0.00,NA,NA,0.00,rapidfire-osx,2013-03-10 20:25:00,
2013-03-10 15:30:00,34.0,28.5,29.86,NW,321,1.0,13.0,80,0.00,NA,NA,0.00,rapidfire-osx,2013-03-10 20:30:00,
2013-03-10 15:35:00,34.0,28.5,29.86,NNE,20,7.0,15.0,80,0.00,NA,NA,0.00,rapidfire-osx,2013-03-10 20:35:00,
2013-03-10 15:40:00,33.8,28.0,29.86,NNW,328,5.0,14.0,79,0.00,NA,NA,0.00,rapidfire-osx,2013-03-10 20:40:00,
2013-03-10 15:45:00,33.8,28.3,29.86,NNW,344,5.0,11.0,80,0.00,NA,NA,0.00,rapidfire-osx,2013-03-10 20:45:00,
2013-03-10 15:49:00,33.7,28.2,29.86,North,360,1.0,12.0,80,0.00,NA,NA,0.00,rapidfire-osx,2013-03-10 20:49:00,
2013-03-10 15:54:00,33.7,28.5,29.86,NNW,343,2.0,9.0,81,0.00,NA,NA,0.00,rapidfire-osx,2013-03-10 20:54:00,
2013-03-10 15:59:00,33.7,28.2,29.85,North,360,7.0,16.0,80,0.00,NA,NA,0.00,rapidfire-osx,2013-03-10 20:59:00,
2013-03-10 16:04:00,33.5,28.0,29.85,NNW,342,3.0,12.0,80,0.00,NA,NA,0.00,rapidfire-osx,2013-03-10 21:04:00,
2013-03-10 16:09:00,33.4,27.9,29.85,North,10,5.0,17.0,80,0.00,NA,NA,0.00,rapidfire-osx,2013-03-10 21:09:00,
2013-03-10 16:15:00,33.4,28.2,29.84,NNW,342,3.0,9.0,81,0.00,NA,NA,0.00,rapidfire-osx,2013-03-10 21:15:00,
2013-03-10 16:20:00,33.4,28.2,29.84,North,9,10.0,11.0,81,0.00,NA,NA,0.00,rapidfire-osx,2013-03-10 21:20:00,
2013-03-10 16:25:00,33.2,28.0,29.84,NNW,333,5.0,12.0,81,0.00,NA,NA,0.00,rapidfire-osx,2013-03-10 21:25:00,
2013-03-10 16:29:00,33.2,28.0,29.84,NNW,333,2.0,12.0,81,0.00,NA,NA,0.00,rapidfire-osx,2013-03-10 21:29:00,
2013-03-10 16:34:00,33.1,27.9,29.84,North,360,2.0,13.0,81,0.00,NA,NA,0.00,rapidfire-osx,2013-03-10 21:34:00,
2013-03-10 16:40:00,33.1,27.9,29.84,NNW,331,7.0,14.0,81,0.00,NA,NA,0.00,rapidfire-osx,2013-03-10 21:40:00,
2013-03-10 16:45:00,33.1,27.9,29.84,North,351,8.0,14.0,81,0.00,NA,NA,0.00,rapidfire-osx,2013-03-10 21:45:00,
2013-03-10 16:50:00,32.9,27.7,29.84,NE,37,3.0,13.0,81,0.00,NA,NA,0.00,rapidfire-osx,2013-03-10 21:50:00,
2013-03-10 16:55:00,32.8,27.9,29.84,North,349,1.0,12.0,82,0.00,NA,NA,0.00,rapidfire-osx,2013-03-10 21:55:00,
2013-03-10 17:00:00,32.8,27.9,29.84,NNW,340,1.0,9.0,82,0.00,NA,NA,0.00,rapidfire-osx,2013-03-10 22:00:00,
2013-03-10 17:05:00,32.8,28.2,29.84,NNW,343,6.0,11.0,83,0.00,NA,NA,0.00,rapidfire-osx,2013-03-10 22:05:00,
2013-03-10 17:10:00,32.7,27.8,29.84,NW,311,1.0,10.0,82,0.00,NA,NA,0.00,rapidfire-osx,2013-03-10 22:10:00,
2013-03-10 17:15:00,32.7,27.8,29.83,North,9,0.0,11.0,82,0.00,NA,NA,0.00,rapidfire-osx,2013-03-10 22:15:00,
2013-03-10 17:20:00,32.5,27.6,29.83,North,360,0.0,9.0,82,0.00,NA,NA,0.00,rapidfire-osx,2013-03-10 22:20:00,
2013-03-10 17:25:00,32.5,27.6,29.83,NNW,343,3.0,14.0,82,0.00,NA,NA,0.00,rapidfire-osx,2013-03-10 22:25:00,
2013-03-10 17:30:00,32.5,27.9,29.83,North,351,2.0,7.0,83,0.00,NA,NA,0.00,rapidfire-osx,2013-03-10 22:30:00,
2013-03-10 17:35:00,32.4,27.8,29.83,NNW,342,6.0,13.0,83,0.00,NA,NA,0.00,rapidfire-osx,2013-03-10 22:35:00,
2013-03-10 17:40:00,32.4,27.8,29.83,NNE,17,3.0,11.0,83,0.00,NA,NA,0.00,rapidfire-osx,2013-03-10 22:40:00,
2013-03-10 17:45:00,32.4,27.8,29.83,NNW,344,0.0,9.0,83,0.00,NA,NA,0.00,rapidfire-osx,2013-03-10 22:45:00,
2013-03-10 17:50:00,32.4,27.8,29.83,NW,323,5.0,16.0,83,0.00,NA,NA,0.00,rapidfire-osx,2013-03-10 22:50:00,
2013-03-10 17:55:00,32.2,27.6,29.83,North,351,2.0,10.0,83,0.00,NA,NA,0.00,rapidfire-osx,2013-03-10 22:55:00,
2013-03-10 18:00:00,32.2,27.6,29.83,WNW,300,4.0,7.0,83,0.00,NA,NA,0.00,rapidfire-osx,2013-03-10 23:00:00,
2013-03-10 18:05:00,32.2,27.6,29.83,NW,326,3.0,11.0,83,0.00,NA,NA,0.00,rapidfire-osx,2013-03-10 23:05:00,
2013-03-10 18:10:00,32.2,27.6,29.83,NNW,346,0.0,12.0,83,0.00,NA,NA,0.00,rapidfire-osx,2013-03-10 23:10:00,
2013-03-10 18:15:00,32.2,27.6,29.83,NNW,334,1.0,10.0,83,0.00,NA,NA,0.00,rapidfire-osx,2013-03-10 23:15:00,
2013-03-10 18:20:00,32.1,27.5,29.83,North,360,4.0,12.0,83,0.00,NA,NA,0.00,rapidfire-osx,2013-03-10 23:20:00,
2013-03-10 18:25:00,32.1,27.5,29.83,NNW,342,4.0,9.0,83,0.00,NA,NA,0.00,rapidfire-osx,2013-03-10 23:25:00,
2013-03-10 18:30:00,32.1,27.5,29.83,NNE,24,3.0,9.0,83,0.00,NA,NA,0.00,rapidfire-osx,2013-03-10 23:30:00,
2013-03-10 18:35:00,32.1,27.5,29.83,NNW,342,0.0,9.0,83,0.00,NA,NA,0.00,rapidfire-osx,2013-03-10 23:35:00,
2013-03-10 18:40:00,31.9,27.3,29.83,NNW,339,5.0,7.0,83,0.00,NA,NA,0.00,rapidfire-osx,2013-03-10 23:40:00,
2013-03-10 18:45:00,31.9,27.3,29.83,NW,314,2.0,12.0,83,0.00,NA,NA,0.00,rapidfire-osx,2013-03-10 23:45:00,
2013-03-10 18:50:00,31.9,27.3,29.83,North,351,3.0,5.0,83,0.00,NA,NA,0.00,rapidfire-osx,2013-03-10 23:50:00,
2013-03-10 18:55:00,31.9,27.3,29.83,NNW,348,2.0,10.0,83,0.00,NA,NA,0.00,rapidfire-osx,2013-03-10 23:55:00,
2013-03-10 19:00:00,31.9,27.3,29.83,NNW,342,0.0,15.0,83,0.00,NA,NA,0.00,rapidfire-osx,2013-03-11 00:00:00,
2013-03-10 19:05:00,31.9,27.3,29.83,North,360,0.0,6.0,83,0.00,NA,NA,0.00,rapidfire-osx,2013-03-11 00:05:00,
2013-03-10 19:09:00,31.9,27.3,29.83,North,351,1.0,7.0,83,0.00,NA,NA,0.00,rapidfire-osx,2013-03-11 00:09:00,
2013-03-10 19:14:00,31.8,27.2,29.84,North,360,2.0,7.0,83,0.00,NA,NA,0.00,rapidfire-osx,2013-03-11 00:14:00,
2013-03-10 19:19:00,31.8,27.2,29.84,NW,319,0.0,9.0,83,0.00,NA,NA,0.00,rapidfire-osx,2013-03-11 00:19:00,
2013-03-10 19:24:00,31.8,27.2,29.84,NNW,346,5.0,11.0,83,0.00,NA,NA,0.00,rapidfire-osx,2013-03-11 00:24:00,
2013-03-10 19:29:00,31.8,27.5,29.85,North,360,4.0,6.0,84,0.00,NA,NA,0.00,rapidfire-osx,2013-03-11 00:29:00,
2013-03-10 19:34:00,31.6,27.0,29.85,NNW,338,3.0,6.0,83,0.00,NA,NA,0.00,rapidfire-osx,2013-03-11 00:34:00,
2013-03-10 19:39:00,31.6,27.0,29.85,North,351,2.0,9.0,83,0.00,NA,NA,0.00,rapidfire-osx,2013-03-11 00:39:00,
2013-03-10 19:44:00,31.5,26.9,29.85,North,360,3.0,9.0,83,0.00,NA,NA,0.00,rapidfire-osx,2013-03-11 00:44:00,
2013-03-10 19:49:00,31.5,26.9,29.85,North,351,2.0,7.0,83,0.00,NA,NA,0.00,rapidfire-osx,2013-03-11 00:49:00,
2013-03-10 19:54:00,31.5,26.9,29.85,North,351,3.0,10.0,83,0.00,NA,NA,0.00,rapidfire-osx,2013-03-11 00:54:00,
2013-03-10 19:59:00,31.5,26.9,29.85,NNE,15,3.0,13.0,83,0.00,NA,NA,0.00,rapidfire-osx,2013-03-11 00:59:00,
2013-03-10 20:04:00,31.5,26.9,29.85,North,351,0.0,9.0,83,0.00,NA,NA,0.00,rapidfire-osx,2013-03-11 01:04:00,
2013-03-10 20:09:00,31.3,27.0,29.85,NNW,345,11.0,11.0,84,0.00,NA,NA,0.00,rapidfire-osx,2013-03-11 01:09:00,
2013-03-10 20:14:00,31.3,27.0,29.85,North,351,4.0,8.0,84,0.00,NA,NA,0.00,rapidfire-osx,2013-03-11 01:14:00,
2013-03-10 20:19:00,31.3,26.7,29.85,NNW,344,0.0,7.0,83,0.00,NA,NA,0.00,rapidfire-osx,2013-03-11 01:19:00,
2013-03-10 20:24:00,31.3,26.7,29.85,North,360,2.0,12.0,83,0.00,NA,NA,0.00,rapidfire-osx,2013-03-11 01:24:00,
2013-03-10 20:29:00,31.2,26.9,29.85,North,360,0.0,4.0,84,0.00,NA,NA,0.00,rapidfire-osx,2013-03-11 01:29:00,
2013-03-10 20:34:00,31.2,26.6,29.85,NNW,339,4.0,11.0,83,0.00,NA,NA,0.00,rapidfire-osx,2013-03-11 01:34:00,
2013-03-10 20:39:00,31.2,26.6,29.85,NW,309,0.0,5.0,83,0.00,NA,NA,0.00,rapidfire-osx,2013-03-11 01:39:00,
2013-03-10 20:44:00,31.2,26.9,29.86,NNW,348,0.0,7.0,84,0.00,NA,NA,0.00,rapidfire-osx,2013-03-11 01:44:00,
2013-03-10 20:49:00,31.2,26.9,29.86,North,351,0.0,5.0,84,0.00,NA,NA,0.00,rapidfire-osx,2013-03-11 01:49:00,
2013-03-10 20:54:00,31.2,26.9,29.86,North,360,1.0,6.0,84,0.00,NA,NA,0.00,rapidfire-osx,2013-03-11 01:54:00,
2013-03-10 20:59:00,31.2,26.9,29.86,NNE,23,0.0,7.0,84,0.00,NA,NA,0.00,rapidfire-osx,2013-03-11 01:59:00,
2013-03-10 21:04:00,31.0,26.7,29.86,NNW,344,0.0,9.0,84,0.00,NA,NA,0.00,rapidfire-osx,2013-03-11 02:04:00,
2013-03-10 21:09:00,31.0,26.7,29.86,NNE,27,5.0,9.0,84,0.00,NA,NA,0.00,rapidfire-osx,2013-03-11 02:09:00,
2013-03-10 21:14:00,31.0,26.7,29.86,North,11,6.0,11.0,84,0.00,NA,NA,0.00,rapidfire-osx,2013-03-11 02:14:00,
2013-03-10 21:19:00,31.0,26.7,29.86,NW,325,7.0,10.0,84,0.00,NA,NA,0.00,rapidfire-osx,2013-03-11 02:19:00,
2013-03-10 21:24:00,30.9,26.6,29.86,NW,321,2.0,11.0,84,0.00,NA,NA,0.00,rapidfire-osx,2013-03-11 02:24:00,
2013-03-10 21:29:00,30.9,26.6,29.86,North,360,4.0,11.0,84,0.00,NA,NA,0.00,rapidfire-osx,2013-03-11 02:29:00,
2013-03-10 21:34:00,30.9,26.6,29.86,North,360,5.0,13.0,84,0.00,NA,NA,0.00,rapidfire-osx,2013-03-11 02:34:00,
2013-03-10 21:39:00,30.9,26.6,29.86,NNW,344,1.0,10.0,84,0.00,NA,NA,0.00,rapidfire-osx,2013-03-11 02:39:00,
2013-03-10 21:44:00,30.7,26.4,29.85,North,351,0.0,6.0,84,0.00,NA,NA,0.00,rapidfire-osx,2013-03-11 02:44:00,
2013-03-10 21:49:00,30.7,26.4,29.85,North,350,5.0,9.0,84,0.00,NA,NA,0.00,rapidfire-osx,2013-03-11 02:49:00,
2013-03-10 21:54:00,30.7,26.4,29.85,NNW,337,1.0,7.0,84,0.00,NA,NA,0.00,rapidfire-osx,2013-03-11 02:54:00,
2013-03-10 21:59:00,30.6,26.4,29.85,NNW,346,5.0,6.0,84,0.00,NA,NA,0.00,rapidfire-osx,2013-03-11 02:59:00,
2013-03-10 22:04:00,30.6,26.1,29.85,North,360,3.0,11.0,83,0.00,NA,NA,0.00,rapidfire-osx,2013-03-11 03:04:00,
2013-03-10 22:09:00,30.6,26.1,29.85,North,360,5.0,7.0,83,0.00,NA,NA,0.00,rapidfire-osx,2013-03-11 03:09:00,
2013-03-10 22:14:00,30.4,25.9,29.84,NNW,346,1.0,10.0,83,0.00,NA,NA,0.00,rapidfire-osx,2013-03-11 03:14:00,
2013-03-10 22:19:00,30.4,25.9,29.84,NNW,346,3.0,14.0,83,0.00,NA,NA,0.00,rapidfire-osx,2013-03-11 03:19:00,
2013-03-10 22:24:00,30.3,25.8,29.84,NNW,333,2.0,13.0,83,0.00,NA,NA,0.00,rapidfire-osx,2013-03-11 03:24:00,
2013-03-10 22:29:00,30.3,25.8,29.83,NW,309,6.0,11.0,83,0.00,NA,NA,0.00,rapidfire-osx,2013-03-11 03:29:00,
2013-03-10 22:34:00,30.3,25.8,29.83,North,351,7.0,16.0,83,0.00,NA,NA,0.00,rapidfire-osx,2013-03-11 03:34:00,
2013-03-10 22:39:00,30.1,25.6,29.83,North,350,3.0,11.0,83,0.00,NA,NA,0.00,rapidfire-osx,2013-03-11 03:39:00,
2013-03-10 22:44:00,30.1,25.6,29.83,North,360,2.0,9.0,83,0.00,NA,NA,0.00,rapidfire-osx,2013-03-11 03:44:00,
2013-03-10 22:49:00,30.1,25.6,29.83,North,360,2.0,12.0,83,0.00,NA,NA,0.00,rapidfire-osx,2013-03-11 03:49:00,
2013-03-10 22:54:00,30.1,25.6,29.83,NNW,336,2.0,10.0,83,0.00,NA,NA,0.00,rapidfire-osx,2013-03-11 03:54:00,
2013-03-10 22:59:00,30.1,25.6,29.82,North,351,7.0,10.0,83,0.00,NA,NA,0.00,rapidfire-osx,2013-03-11 03:59:00,
2013-03-10 23:00:00,30.1,25.6,29.82,NNE,21,3.0,10.0,83,0.00,NA,NA,0.00,rapidfire-osx,2013-03-11 04:00:00,
2013-03-10 23:05:00,30.0,25.5,29.82,NNW,339,5.0,10.0,83,0.00,NA,NA,0.00,rapidfire-osx,2013-03-11 04:05:00,
2013-03-10 23:10:00,30.0,25.5,29.82,North,360,0.0,11.0,83,0.00,NA,NA,0.00,rapidfire-osx,2013-03-11 04:10:00,
2013-03-10 23:15:00,30.0,25.2,29.82,North,360,0.0,12.0,82,0.00,NA,NA,0.00,rapidfire-osx,2013-03-11 04:15:00,
2013-03-10 23:20:00,30.0,25.5,29.82,North,350,0.0,5.0,83,0.00,NA,NA,0.00,rapidfire-osx,2013-03-11 04:20:00,
2013-03-10 23:25:00,29.8,25.3,29.82,NNE,25,0.0,7.0,83,0.00,NA,NA,0.00,rapidfire-osx,2013-03-11 04:25:00,
2013-03-10 23:30:00,29.8,25.3,29.82,NNE,15,0.0,6.0,83,0.00,NA,NA,0.00,rapidfire-osx,2013-03-11 04:30:00,
2013-03-10 23:35:00,29.8,25.3,29.82,NNE,30,4.0,10.0,83,0.00,NA,NA,0.00,rapidfire-osx,2013-03-11 04:35:00,
2013-03-10 23:40:00,29.8,25.3,29.82,NNW,345,2.0,5.0,83,0.00,NA,NA,0.00,rapidfire-osx,2013-03-11 04:40:00,
2013-03-10 23:45:00,29.8,25.3,29.82,NNW,345,0.0,9.0,83,0.00,NA,NA,0.00,rapidfire-osx,2013-03-11 04:45:00,
2013-03-10 23:50:00,29.7,25.5,29.82,NNE,15,0.0,9.0,84,0.00,NA,NA,0.00,rapidfire-osx,2013-03-11 04:50:00,
2013-03-10 23:55:00,29.7,25.5,29.82,North,351,0.0,7.0,84,0.00,NA,NA,0.00,rapidfire-osx,2013-03-11 04:55:00,